Tracking 30509 objects as of 21-May-2025
HD Live streaming from Space Station
objects crossing your sky now

ATLAS 5 CENTAUR DEB

Track ATLAS 5 CENTAUR DEB now!


NORAD ID: 46607
Int'l Code: 2018-079CF
Perigee: 7,800.2 km
Apogee: 31,785.3 km
Inclination: 12.9 °
Period: 702.0 minutes
Semi major axis: 26163 km
RCS: Unknown
Launch date: October 17, 2018
Source: United States (US)
Launch site: AIR FORCE EASTERN TEST RANGE (AFETR)

Note: This is SATELLITE DEBRIS
Your satellite tracking list
Your tracking list is empty




NASA's NSSDC Master Catalog

Two Line Element Set (TLE):
1 46607U 18079CF  25129.21058181 -.00000129  00000-0  00000-0 0  9996
2 46607  12.8575  31.5641 4583650 344.9534   5.0875  2.05140905 42160
Source of the keplerian elements: AFSPC